Find Starlink 30820

NORAD ID: 58190 Int'l Des: 2023-167 Owner: SPXS Country: US Constellation: starlink operational
LEOCIRCULAR

当前视图

正在加载3D地球...

About Starlink 30820

Starlink 30820 (NORAD 58190) is a starlink constellation satellite (v2 mini) launched Oct 30, 2023 by SPXS of US. It operates in LEO, CIRCULAR orbit with a mass of 730.00 kg.

关于 Starlink 30820

正在加载描述...

即将过境

Passes for default location (London). Set your location on the main map for personalized predictions.

高度历史

Loading altitude history...

两行轨道根数

1 58190U 23167R 26169.60984908 .00000850 00000-0 40421-4 0 9998
2 58190 43.0020 293.1005 0001061 258.6319 101.4414 15.27580248146420
Epoch: Jun 18, 2026 • Age: 22 hours

当前状态

高度 486.1 km
速度 7.63 km/s
星下点 39.57°N, 58.14°W
发射日期 Oct 30, 2023
运行时间 2.6 years
类型 internet

技术详情

分类 Payload
质量 730.00 kg
干质量 700.00 kg
总质量 730.00 kg
长度 0.30 m
直径 4.10 m
跨度 29.00 m
形状 Box + pan
制造商 SPXS
平台类型 Starlink V2M
阶段状态 In Orbit
所有者/国家 SPXS/US

Most Searched